This is the latest recevied weather packets stored in our database for station/object KD0KHX-10. If no packets are shown the sender has not sent any weather packets the latest 10 day(s).
| Time | Temp. | Humidity | Pressure | Rain* | Wind** | Luminosity | Snow |
|---|---|---|---|---|---|---|---|
| 1778173503 | 20.56° C | 34% | 1007.2 hPa | 0 mm | - | - | - |
| 1778173472 | 20.56° C | 34% | 1007.2 hPa | 0 mm | - | - | - |
| 1778172903 | 20° C | 35% | 1007.1 hPa | 0 mm | - | - | - |
| 1778172603 | 20° C | 35% | 1007.2 hPa | 0 mm | - | - | - |
| 1778172303 | 20° C | 36% | 1007.2 hPa | 0 mm | - | - | - |
| 1778172137 | 19.44° C | 38% | 1007.2 hPa | 0 mm | - | - | - |
| 1778171973 | 18.89° C | 39% | 1007.2 hPa | 0 mm | - | - | - |
| 1778171537 | 18.33° C | 44% | 1007.3 hPa | 0 mm | - | - | - |
| 1778171103 | 18.33° C | 42% | 1007.5 hPa | 0 mm | - | - | - |
| 1778170803 | 18.33° C | 42% | 1007.6 hPa | 0 mm | - | - | - |
| 1778170503 | 18.33° C | 43% | 1007.7 hPa | 0 mm | - | - | - |
| 1778170337 | 18.33° C | 42% | 1007.5 hPa | 0 mm | - | - | - |
| 1778169903 | 18.33° C | 43% | 1007.6 hPa | 0 mm | - | - | - |
| 1778169603 | 17.78° C | 43% | 1007.5 hPa | 0 mm | - | - | - |
| 1778169303 | 17.78° C | 44% | 1007.5 hPa | 0 mm | - | - | - |
| 1778169003 | 17.78° C | 44% | 1007.6 hPa | 0 mm | - | - | - |
| 1778168703 | 17.22° C | 45% | 1007.6 hPa | 0 mm | - | - | - |
| 1778168408 | 17.22° C | 47% | 1007.6 hPa | 0 mm | - | - | - |
| 1778168103 | 16.67° C | 45% | 1007.6 hPa | 0 mm | - | - | - |
| 1778167803 | 16.67° C | 45% | 1007.7 hPa | 0 mm | - | - | - |
| 1778167773 | 16.67° C | 45% | 1007.7 hPa | 0 mm | - | - | - |
| 1778167203 | 15.56° C | 45% | 1007.7 hPa | 0 mm | - | - | - |
| 1778167173 | 15.56° C | 45% | 1007.7 hPa | 0 mm | - | - | - |
| 1778166874 | 15.56° C | 45% | 1007.7 hPa | 0 mm | - | - | - |
| 1778166303 | 15° C | 47% | 1007.6 hPa | 0 mm | - | - | - |
* Rain latest hour (hover to see other rain measurements)
** Current wind speed in m/s (hover to see current wind gust speed)